Weather History for Garden City, KS

Change the Weather History Date:

Wednesday, October 3, 2012

  Actual Average Record
Temperature  
Mean Temperature 66 °F 61 °F  
Max Temperature 85 °F 75 °F 96 °F (1967)
Min Temperature 47 °F 47 °F 29 °F (2009)
Degree Days  
Heating Degree Days 0 6  
Month to date heating degree days 14 18  
Since 1 July heating degree days 60 90  
Cooling Degree Days 1 2  
Month to date cooling degree days 1 6  
Year to date cooling degree days 1643 1284  
Growing Degree Days 15 (Base 50)    
Moisture  
Dew Point 47 °F    
Average Humidity 58    
Maximum Humidity 86    
Minimum Humidity 29    
Precipitation  
Precipitation 0.00 in 0.05 in 0.85 in (2002)
Month to date precipitation 0.01 0.16  
Year to date precipitation 11.73 17.28  
Sea Level Pressure  
Sea Level Pressure 29.81 in    
Wind  
Wind Speed 13 mph (South)    
Max Wind Speed 36 mph    
Max Gust Speed 45 mph    
Visibility 10 miles    
Events      
T = Trace of Precipitation, MM = Missing Value Source: NWS Daily Summary

Daily Weather History Graph

Daily Weather History Graph

Search for Another Location

Airport:

Trip Planner

Search our weather history database for the weather conditions in past years. The results will help you decide how hot, cold, wet, or windy it might be!

Date:

Astronomy

Oct. 03, 2012 Rise Set
Actual Time 7:40 AM CDT 7:22 PM CDT
Civil Twilight 7:14 AM CDT 7:48 PM CDT
Nautical Twilight 6:44 AM CDT 8:18 PM CDT
Astronomical Twilight 6:13 AM CDT 8:49 PM CDT
Moon 9:19 PM CDT (10/3) 11:01 AM CDT (10/3)
Length of Visible Light 12h 33m
Length of Day
11h 41m
Waning Gibbous, 88% of the Moon is Illuminated
Oct 3
Waning Gibbous
Oct 8
Last Quarter
Oct 15
New
Oct 21
First Quarter
Oct 29
Full

Hourly Weather History & Observations

Time (CDT) Temp. Dew Point Humidity Pressure Visibility Wind Dir Wind Speed Gust Speed Precip Events Conditions
12:54 AM 52.0 °F 39.0 °F 61% 29.85 in 10.0 mi SSE 11.5 mph - N/A   Clear
1:54 AM 51.1 °F 39.9 °F 66% 29.84 in 10.0 mi SSE 10.4 mph - N/A   Clear
2:54 AM 50.0 °F 39.9 °F 68% 29.84 in 10.0 mi SSE 9.2 mph - N/A   Clear
3:54 AM 48.9 °F 41.0 °F 74% 29.83 in 10.0 mi SSE 4.6 mph - N/A   Clear
4:54 AM 48.0 °F 42.1 °F 80% 29.83 in 10.0 mi SSE 6.9 mph - N/A   Clear
5:54 AM 46.9 °F 42.1 °F 83% 29.83 in 10.0 mi SSE 5.8 mph - N/A   Clear
6:54 AM 46.9 °F 43.0 °F 86% 29.84 in 10.0 mi SSE 5.8 mph - N/A   Clear
7:54 AM 46.9 °F 43.0 °F 86% 29.84 in 10.0 mi SSE 8.1 mph - N/A   Clear
8:54 AM 51.1 °F 45.0 °F 80% 29.84 in 10.0 mi SSE 6.9 mph - N/A   Clear
9:54 AM 60.1 °F 48.9 °F 67% 29.83 in 10.0 mi SSW 11.5 mph - N/A   Clear
10:54 AM 64.9 °F 50.0 °F 58% 29.83 in 10.0 mi SSW 11.5 mph - N/A   Clear
11:54 AM 71.1 °F 51.1 °F 49% 29.81 in 10.0 mi South 11.5 mph 19.6 mph N/A   Clear
12:54 PM 77.0 °F 52.0 °F 42% 29.79 in 10.0 mi South 15.0 mph - N/A   Clear
1:54 PM 80.1 °F 52.0 °F 38% 29.75 in 10.0 mi South 13.8 mph 20.7 mph N/A   Clear
2:54 PM 82.9 °F 51.1 °F 33% 29.73 in 10.0 mi South 16.1 mph - N/A   Clear
3:54 PM 84.0 °F 48.9 °F 29% 29.72 in 10.0 mi South 13.8 mph 24.2 mph N/A   Clear
4:54 PM 84.0 °F 48.9 °F 29% 29.73 in 10.0 mi South 19.6 mph 24.2 mph N/A   Clear
5:54 PM 82.9 °F 48.9 °F 31% 29.75 in 10.0 mi South 15.0 mph 24.2 mph N/A   Clear
6:54 PM 80.1 °F 48.9 °F 34% 29.76 in 10.0 mi South 10.4 mph - N/A   Clear
7:54 PM 73.9 °F 51.1 °F 45% 29.78 in 10.0 mi SSE 11.5 mph - N/A   Clear
8:54 PM 70.0 °F 52.0 °F 53% 29.80 in 10.0 mi SSE 11.5 mph - N/A   Clear
9:54 PM 68.0 °F 51.1 °F 55% 29.81 in 10.0 mi South 15.0 mph - N/A   Clear
10:54 PM 66.9 °F 51.1 °F 57% 29.83 in 10.0 mi South 15.0 mph 21.9 mph N/A   Clear
11:54 PM 66.0 °F 52.0 °F 60% 29.93 in 10.0 mi NNW 25.3 mph 34.5 mph N/A   Clear